MINXSS-2

Satellite information

Favourite Embed

Satellite Type and Status

PAYLOADIN ORBIT

Key statistics

Satellite MINXSS-2 at a glance.

Uptime

2351

Days in orbit

Revolutions

≈ 15.2

Per day

Orbit

SSO

Sun Synchronous Orbit

Inclination

97.5

Latest

Satellite identification and parameters

Extended collection of information and parameters for MINXSS-2.

Object identification

Identified? True

Debris? False

Object name: MINXSS-2

International designator: 2018-099A

Object number (NORAD): 43758

Object ID (CCSDS): 43758

Country: UNITED STATES OF AMERICA (US)

Current information (Y/N): Y

RCS size: MEDIUM

Orbital parameters

Period: 94.44 minutes

Inclination: 97.5038 deg

SMA: 6869.569 km

Apoapsis: 498.777 km

Periapsis: 484.091 km

RAAN: 196.8311 deg

Eccentricy: 0.0010689

Argument of periapsis: 255.2392 deg

Mean anomaly: 104.7661 deg

Mean motion: 15.24784682 rev/day

Mean motion (dot): 0.0001621 rev/day2

B* drag term: 0.00065493 1/REarth

Two-line elements (TLE)

Creation date: May 11, 2025, 2:40 a.m.

Reference frame: TEME

Reference center: EARTH

Epoch: May 10, 2025, 8:57 p.m. UTC

TLE line 0: 0 MINXSS-2

TLE line 1: 1 43758U 18099A 25130.87331325 .00016210 00000-0 65493-3 0 9997

TLE line 2: 2 43758 97.5038 196.8311 0010689 255.2392 104.7661 15.24784682352442

Live tracking on map

Real-time ground track for satellite MINXSS-2.

In-orbit conjunctions

There are no conjunctions computed for MINXSS-2, at the moment. Check back to stay up to date, as we update our databases every day.

Go to all conjunctions

Associated space launch

Dedicated rideshare launching payloads into sun-synchronous orbit. Payloads include ORS-6, EU:CROPIS, STPSat-5, BlackSky Global-1 to -4, HawkEye Pathfinder 1-3, Iceye, NEXTSat-1, 2 SkySats, Centauri II, and a Flock of Doves.

MINXSS-2 was lifted into orbit during the mission ‘Falcon 9 Block 5 | Spaceflight SSO-A’, on board a Falcon 9 space rocket.

The launch took place on Dec. 3, 2018, 6:34 p.m. from Space Launch Complex 4E.

For more information about the launch, click the button.

Launch to space Falcon 9 Block 5 | Spaceflight SSO-A
Falcon 9 Block 5 | Spaceflight SSO-A

Agency: N/A

Status: Launch Successful

Launch date: Dec. 3, 2018, 6:34 p.m. UTC

Rocket: Falcon 9

Launch pad: Space Launch Complex 4E

Location: Vandenberg SFB, CA, USA

...

Latest news about this satellite

There are no fresh news available about this satellite. Check back as we update our databases every day.


Newsletter sign-up

Weekly statistics, charts and insights to help you stay on top of the space industry.